GW0614 Weather Reports


time (UTC)temp
C
wind
direction
speed
KPH
gust
KPH
rain 1hr
cm
rain 24hr
cm
rain mn
cm
humidity
%
barometer
mb
20260510192906 18 325 1.6 3.2 0.00 0.00 0.00 66 1015.9
20260510192401 18 333 3.2 3.2 0.00 0.00 0.00 65 1016.0
20260510191857 19 345 8.0 9.7 0.00 0.00 0.00 60 1015.7
20260510191353 19 314 3.2 4.8 0.00 0.00 0.00 66 1016.1
20260510190850 20 314 4.8 8.0 0.00 0.00 0.00 59 1016.1
20260510190348 20 292 4.8 4.8 0.00 0.00 0.00 66 1016.0
20260510185844 18 319 4.8 4.8 0.00 0.00 0.00 69 1016.1
20260510185342 18 335 3.2 3.2 0.00 0.00 0.00 65 1016.3
20260510184839 18 4 4.8 8.0 0.00 0.00 0.00 65 1016.0
20260510184336 20 352 4.8 8.0 0.00 0.00 0.00 63 1015.9
20260510183836 19 314 0.0 0.0 0.00 0.00 0.00 67 1015.9
20260510183332 19 351 0.0 0.0 0.00 0.00 0.00 67 1016.1
20260510182827 20 311 8.0 9.7 0.00 0.00 0.00 67 1016.0
20260510182324 20 350 0.0 1.6 0.00 0.00 0.00 65 1015.8
20260510181820 20 306 4.8 8.0 0.00 0.00 0.00 64 1016.0
20260510181317 19 347 1.6 1.6 0.00 0.00 0.00 70 1016.4
20260510180808 19 339 4.8 4.8 0.00 0.00 0.00 68 1016.5
20260510180305 18 5 3.2 3.2 0.00 0.00 0.00 69 1016.1
20260510175802 20 338 3.2 3.2 0.00 0.00 0.00 68 1016.1
20260510175257 20 347 3.2 3.2 0.00 0.00 0.00 72 1016.0
20260510174754 19 332 0.0 0.0 0.00 0.00 0.00 70 1015.8
20260510174252 18 358 1.6 1.6 0.00 0.00 0.00 72 1016.1
20260510173748 18 317 4.8 4.8 0.00 0.00 0.00 72 1016.1
20260510173244 17 350 1.6 1.6 0.00 0.00 0.00 74 1015.7
20260510172739 16 198 0.0 0.0 0.00 0.00 0.00 77 1015.8
20260510172235 16 315 3.2 4.8 0.00 0.00 0.00 77 1015.8
20260510171733 17 63 1.6 3.2 0.00 0.00 0.00 79 1015.8
20260510171230 16 327 0.0 1.6 0.00 0.00 0.00 81 1015.9
20260510170727 16 5 3.2 3.2 0.00 0.00 0.00 76 1015.9
20260510170223 16 334 3.2 4.8 0.00 0.00 0.00 77 1015.9
20260510165719 17 340 6.4 9.7 0.00 0.00 0.00 72 1016.0
20260510165215 16 336 3.2 3.2 0.00 0.00 0.00 78 1015.7
20260510164712 17 3 1.6 1.6 0.00 0.00 0.00 78 1015.9
20260510164210 18 323 4.8 4.8 0.00 0.00 0.00 73 1016.0
20260510163705 20 350 4.8 4.8 0.00 0.00 0.00 70 1015.8
20260510163201 20 340 0.0 1.6 0.00 0.00 0.00 72 1015.9
20260510162700 18 11 0.0 0.0 0.00 0.00 0.00 79 1015.7
20260510162158 18 44 0.0 0.0 0.00 0.00 0.00 71 1016.1
20260510161653 19 228 4.8 8.0 0.00 0.00 0.00 70 1015.7
20260510161150 19 208 0.0 0.0 0.00 0.00 0.00 72 1016.0
20260510160647 19 342 0.0 0.0 0.00 0.00 0.00 76 1015.9
20260510160142 20 344 1.6 1.6 0.00 0.00 0.00 74 1015.6
20260510155638 20 342 0.0 0.0 0.00 0.00 0.00 73 1015.8
20260510155134 20 205 3.2 3.2 0.00 0.00 0.00 75 1015.8
20260510154630 19 2 1.6 3.2 0.00 0.00 0.00 72 1015.7
20260510154126 20 60 4.8 8.0 0.00 0.00 0.00 71 1016.0
20260510153621 20 1 3.2 3.2 0.00 0.00 0.00 74 1016.0
20260510153118 18 73 4.8 9.7 0.00 0.00 0.00 70 1016.2
20260510152615 18 63 3.2 4.8 0.00 0.00 0.00 71 1016.1
20260510152111 18 13 1.6 3.2 0.00 0.00 0.00 73 1015.8
20260510151607 19 350 3.2 3.2 0.00 0.00 0.00 75 1015.8
20260510151105 19 51 0.0 1.6 0.00 0.00 0.00 74 1015.5
20260510150600 18 107 0.0 1.6 0.00 0.00 0.00 75 1015.6
20260510150056 18 25 1.6 3.2 0.00 0.00 0.00 78 1015.8
20260510145553 18 211 4.8 4.8 0.00 0.00 0.00 79 1015.5
20260510145050 18 20 1.6 3.2 0.00 0.00 0.00 77 1015.5
20260510144546 17 275 0.0 1.6 0.00 0.00 0.00 80 1015.5
20260510144042 18 12 0.0 1.6 0.00 0.00 0.00 75 1015.5
20260510143537 18 51 0.0 1.6 0.00 0.00 0.00 81 1015.4
20260510143034 17 9 0.0 1.6 0.00 0.00 0.00 78 1015.2
20260510142531 17 208 4.8 4.8 0.00 0.00 0.00 82 1015.4
20260510142028 17 210 4.8 8.0 0.00 0.00 0.00 79 1015.4
20260510141524 16 165 1.6 1.6 0.00 0.00 0.00 82 1015.4
20260510141022 16 73 0.0 0.0 0.00 0.00 0.00 82 1015.5
20260510140518 16 146 3.2 3.2 0.00 0.00 0.00 83 1015.5
20260510140017 16 90 1.6 3.2 0.00 0.00 0.00 85 1015.5
20260510135513 15 199 4.8 9.7 0.00 0.00 0.00 84 1015.2
20260510135010 15 25 0.0 1.6 0.00 0.00 0.00 83 1015.4
20260510134507 16 53 1.6 3.2 0.00 0.00 0.00 86 1015.2
20260510134004 16 252 3.2 4.8 0.00 0.00 0.00 83 1015.5
20260510133500 15 84 1.6 1.6 0.00 0.00 0.00 84 1015.2
20260510132955 15 142 1.6 3.2 0.00 0.00 0.00 86 1015.1
20260510132453 15 74 0.0 0.0 0.00 0.00 0.00 86 1015.5
20260510131949 15 109 3.2 3.2 0.00 0.00 0.00 85 1015.5
20260510131448 15 71 1.6 3.2 0.00 0.00 0.00 88 1015.4
20260510130944 15 58 0.0 0.0 0.00 0.00 0.00 88 1015.4
20260510130441 15 106 3.2 3.2 0.00 0.00 0.00 84 1015.5
20260510125938 15 26 0.0 0.0 0.00 0.00 0.00 89 1015.6
20260510125434 15 41 0.0 0.0 0.00 0.00 0.00 90 1015.6
20260510124930 15 36 0.0 0.0 0.00 0.00 0.00 90 1015.4
20260510124427 15 44 1.6 1.6 0.00 0.00 0.00 90 1015.2
20260510123924 14 33 0.0 1.6 0.00 0.00 0.00 90 1015.1
20260510123414 13 197 1.6 3.2 0.00 0.00 0.00 91 1015.1
20260510122911 13 132 4.8 8.0 0.00 0.00 0.00 90 1015.0
20260510122411 13 153 1.6 1.6 0.00 0.00 0.00 92 1015.1
20260510121907 12 155 1.6 1.6 0.00 0.00 0.00 94 1014.9
20260510121405 12 45 0.0 0.0 0.00 0.00 0.00 96 1015.0
20260510120902 12 42 1.6 1.6 0.00 0.00 0.00 94 1014.8
20260510120359 12 45 0.0 1.6 0.00 0.00 0.00 96 1015.1
20260510115855 12 207 0.0 0.0 0.00 0.00 0.00 96 1014.8
20260510115352 12 55 0.0 0.0 0.00 0.00 0.00 98 1014.9
20260510114848 11 69 1.6 1.6 0.00 0.00 0.00 98 1014.8
20260510114346 11 168 6.4 8.0 0.00 0.00 0.00 97 1015.0
20260510113845 11 185 4.8 8.0 0.00 0.00 0.00 97 1015.0
20260510113342 11 179 4.8 4.8 0.00 0.00 0.00 97 1015.0
20260510112839 11 66 1.6 3.2 0.00 0.00 0.00 97 1014.9
20260510112336 11 75 0.0 0.0 0.00 0.00 0.00 98 1015.2
20260510111832 11 195 1.6 4.8 0.00 0.00 0.00 99 1015.0
20260510111329 11 50 1.6 1.6 0.00 0.00 0.00 99 1014.9
20260510110828 11 40 0.0 0.0 0.00 0.00 0.00 99 1015.1
20260510110326 11 30 0.0 1.6 0.00 0.00 0.00 99 1015.0
20260510105822 11 77 0.0 0.0 0.00 0.00 0.00 99 1015.2
20260510105322 11 104 0.0 0.0 0.00 0.00 0.00 99 1015.0
20260510104818 11 163 3.2 8.0 0.00 0.00 0.00 98 1014.8
20260510104316 11 121 1.6 1.6 0.00 0.00 0.00 99 1014.9
20260510103812 11 73 0.0 0.0 0.00 0.00 0.00 99 1014.8
20260510103309 11 200 1.6 3.2 0.00 0.00 0.00 99 1014.8
20260510102804 10 204 3.2 3.2 0.00 0.00 0.00 99 1014.4
20260510102300 10 50 0.0 0.0 0.00 0.00 0.00 99 1014.4
20260510101757 10 200 0.0 0.0 0.00 0.00 0.00 99 1014.3
20260510101256 10 27 0.0 0.0 0.00 0.00 0.00 99 1014.3
20260510100751 10 98 0.0 0.0 0.00 0.00 0.00 99 1014.0
20260510100249 10 97 1.6 1.6 0.00 0.00 0.00 99 1014.0
20260510095744 10 47 0.0 0.0 0.00 0.00 0.00 99 1014.0
20260510095240 10 77 0.0 0.0 0.00 0.00 0.00 99 1013.9
20260510094738 10 56 0.0 0.0 0.00 0.00 0.00 99 1013.8
20260510094234 10 252 1.6 1.6 0.00 0.00 0.00 99 1013.9
20260510093730 10 50 0.0 0.0 0.00 0.00 0.00 99 1014.0
20260510093228 10 199 3.2 4.8 0.00 0.00 0.00 99 1014.0
20260510092724 10 287 0.0 0.0 0.00 0.00 0.00 99 1013.8
20260510092220 10 56 3.2 4.8 0.00 0.00 0.00 99 1013.7
20260510091716 10 48 0.0 0.0 0.00 0.00 0.00 99 1013.7
20260510091212 10 48 0.0 0.0 0.00 0.00 0.00 99 1013.6
20260510090709 10 47 0.0 0.0 0.00 0.00 0.00 99 1013.7
20260510090206 10 48 0.0 0.0 0.00 0.00 0.00 99 1013.5
20260510085701 10 352 0.0 0.0 0.00 0.00 0.00 99 1013.5
20260510085156 10 337 0.0 0.0 0.00 0.00 0.00 99 1013.2
20260510084653 10 340 3.2 3.2 0.00 0.00 0.00 99 1013.5
20260510084149 10 69 1.6 1.6 0.00 0.00 0.00 99 1013.2
20260510083646 10 199 0.0 0.0 0.00 0.00 0.00 99 1013.3
20260510083143 10 69 0.0 0.0 0.00 0.00 0.00 99 1013.3
20260510082639 10 206 8.0 11.3 0.00 0.00 0.00 99 1013.0
20260510082135 10 123 1.6 3.2 0.00 0.00 0.00 99 1013.2
20260510081630 10 198 3.2 8.0 0.00 0.00 0.00 99 1013.2
20260510081126 10 74 1.6 3.2 0.00 0.00 0.00 99 1013.0
20260510080625 10 69 0.0 0.0 0.00 0.00 0.00 99 1013.5
20260510080122 10 191 3.2 4.8 0.00 0.00 0.00 99 1013.6
20260510075620 10 48 1.6 1.6 0.00 0.00 0.00 99 1013.9
20260510075117 10 64 3.2 4.8 0.00 0.00 0.00 99 1014.1
20260510074613 10 48 0.0 0.0 0.00 0.00 0.00 99 1014.1
20260510074109 10 125 0.0 0.0 0.00 0.00 0.00 99 1014.1
20260510073605 10 42 0.0 0.0 0.00 0.00 0.00 99 1014.5
20260510073103 10 87 0.0 0.0 0.00 0.00 0.00 99 1014.6
20260510072559 10 87 0.0 0.0 0.00 0.00 0.00 99 1014.5
20260510072055 10 57 0.0 0.0 0.00 0.00 0.00 99 1014.6
20260510071551 10 47 0.0 0.0 0.00 0.00 0.00 99 1014.4
20260510071049 10 30 0.0 0.0 0.00 0.00 0.00 99 1014.6
20260510070546 10 25 0.0 0.0 0.00 0.00 0.00 99 1014.7
20260510070043 10 269 0.0 0.0 0.00 0.00 0.00 99 1014.6
20260510065539 10 1 0.0 0.0 0.00 0.00 0.00 99 1014.3
20260510065035 10 63 0.0 0.0 0.00 0.00 0.00 99 1014.2
20260510064532 10 39 0.0 0.0 0.00 0.00 0.00 99 1013.9
20260510064028 10 101 1.6 1.6 0.00 0.00 0.00 99 1014.2
20260510063525 10 46 0.0 1.6 0.00 0.00 0.00 99 1014.0
20260510063023 10 76 1.6 3.2 0.00 0.00 0.00 99 1013.7
20260510062518 9 62 0.0 0.0 0.00 0.00 0.00 99 1013.9
20260510062014 9 199 0.0 0.0 0.00 0.00 0.00 99 1013.7
20260510061511 9 55 0.0 0.0 0.00 0.00 0.00 99 1013.8
20260510061007 8 43 0.0 0.0 0.00 0.00 0.00 99 1013.6
20260510060504 8 43 0.0 0.0 0.00 0.00 0.00 99 1013.7
20260510060000 8 42 0.0 0.0 0.00 0.00 0.00 99 1013.3
20260510055456 8 42 0.0 0.0 0.00 0.00 0.00 99 1013.7
20260510054954 8 41 0.0 0.0 0.00 0.00 0.00 99 1013.8
20260510054449 8 41 0.0 0.0 0.00 0.00 0.00 99 1013.8
20260510053945 8 54 0.0 0.0 0.00 0.00 0.00 99 1013.8
20260510053440 8 35 0.0 0.0 0.00 0.00 0.00 99 1013.9
20260510052936 8 35 0.0 0.0 0.00 0.00 0.00 99 1013.8
20260510052432 8 27 0.0 0.0 0.00 0.00 0.00 99 1014.0
20260510051929 8 27 0.0 0.0 0.00 0.00 0.00 99 1013.9
20260510051425 8 39 0.0 0.0 0.00 0.00 0.00 99 1014.3
20260510050922 7 50 0.0 0.0 0.00 0.00 0.00 99 1013.8
20260510050418 8 41 0.0 0.0 0.00 0.00 0.00 99 1014.0
20260510045916 8 50 0.0 0.0 0.00 0.00 0.00 99 1013.7
20260510045413 8 50 0.0 0.0 0.00 0.00 0.00 99 1013.7
20260510044909 8 50 0.0 0.0 0.00 0.00 0.00 99 1013.7
20260510044407 8 50 0.0 0.0 0.00 0.00 0.00 99 1013.8
20260510043903 8 50 0.0 0.0 0.00 0.00 0.00 99 1013.7
20260510043359 9 50 0.0 0.0 0.00 0.00 0.00 99 1013.6
20260510042857 9 50 0.0 0.0 0.00 0.00 0.00 99 1013.6
20260510042353 9 50 0.0 0.0 0.00 0.00 0.00 99 1013.7
20260510041849 9 14 0.0 0.0 0.00 0.00 0.00 99 1013.6
20260510041346 9 47 0.0 0.0 0.00 0.00 0.00 99 1013.8
20260510040844 9 48 0.0 0.0 0.00 0.00 0.00 99 1013.8
20260510040341 10 212 0.0 0.0 0.00 0.00 0.00 99 1013.8
20260510035836 10 212 1.6 3.2 0.00 1.19 1.19 99 1013.7
20260510035332 10 42 0.0 0.0 0.00 1.19 1.19 99 1013.9
20260510034828 10 39 0.0 0.0 0.00 1.19 1.19 99 1014.0
20260510034326 10 51 0.0 0.0 0.00 1.19 1.19 99 1013.8
20260510033822 10 43 0.0 0.0 0.00 1.19 1.19 99 1013.5
20260510033319 10 55 1.6 1.6 0.00 1.19 1.19 99 1013.7
20260510032816 10 50 0.0 0.0 0.00 1.19 1.19 99 1013.9
20260510032312 10 44 0.0 0.0 0.00 1.19 1.19 99 1013.7
20260510031808 10 48 0.0 0.0 0.00 1.19 1.19 99 1013.6
20260510031303 10 31 0.0 0.0 0.00 1.19 1.19 99 1013.3
20260510030757 10 65 0.0 0.0 0.00 1.19 1.19 98 1013.5
20260510030254 10 57 1.6 1.6 0.00 1.19 1.19 98 1013.5
20260510025752 10 101 3.2 3.2 0.00 1.19 1.19 99 1013.6
20260510025249 11 27 0.0 0.0 0.00 1.19 1.19 99 1014.1
20260510024745 10 15 0.0 0.0 0.00 1.19 1.19 98 1013.9
20260510024242 10 55 0.0 0.0 0.00 1.19 1.19 98 1013.7
20260510023738 11 52 0.0 0.0 0.00 1.19 1.19 97 1013.7
20260510023230 11 53 0.0 0.0 0.00 1.19 1.19 96 1013.8
20260510022726 11 78 0.0 1.6 0.00 1.19 1.19 99 1014.0
20260510022226 10 39 0.0 0.0 0.00 1.19 1.19 99 1013.6
20260510021721 10 35 0.0 0.0 0.00 1.19 1.19 99 1013.9
20260510021219 10 41 0.0 0.0 0.00 1.19 1.19 99 1013.9
20260510020714 10 42 0.0 0.0 0.00 1.19 1.19 99 1013.8
20260510020209 10 51 0.0 0.0 0.00 1.19 1.19 99 1014.1
20260510015705 10 58 0.0 0.0 0.00 1.19 1.19 99 1013.8
20260510015201 10 56 0.0 0.0 0.00 1.19 1.19 99 1013.8
20260510014702 10 51 0.0 0.0 0.00 1.19 1.19 98 1013.6
20260510014159 10 44 1.6 1.6 0.00 1.19 1.19 98 1013.6
20260510013654 10 52 1.6 1.6 0.00 1.19 1.19 98 1013.7
20260510013150 10 47 0.0 1.6 0.00 1.19 1.19 98 1013.8
20260510012650 10 67 0.0 1.6 0.00 1.19 1.19 98 1013.8
20260510012146 10 38 0.0 0.0 0.00 1.19 1.19 98 1013.6
20260510011641 10 45 0.0 0.0 0.00 1.19 1.19 98 1013.6
20260510011137 10 47 1.6 1.6 0.00 1.19 1.19 98 1013.3
20260510010633 10 45 0.0 0.0 0.00 1.19 1.19 99 1013.5
20260510010130 10 56 0.0 0.0 0.00 1.19 1.19 99 1013.8
20260510005625 10 45 0.0 0.0 0.00 1.19 1.19 99 1013.6
20260510005123 10 92 1.6 1.6 0.00 1.19 1.19 99 1013.8
20260510004621 10 46 0.0 1.6 0.00 1.19 1.19 99 1013.6
20260510004119 10 25 0.0 0.0 0.00 1.19 1.19 99 1013.6
20260510003616 10 223 8.0 9.7 0.00 1.19 1.19 99 1013.3
20260510003112 10 46 0.0 0.0 0.00 1.19 1.19 99 1013.1
20260510002606 10 46 1.6 1.6 0.00 1.19 1.19 99 1013.3
20260510002103 10 74 0.0 0.0 0.00 1.19 1.19 99 1013.2
20260510001601 10 69 0.0 0.0 0.00 1.19 1.19 99 1012.9
20260510001100 10 38 0.0 0.0 0.00 1.19 1.19 99 1013.0
20260510000600 10 38 0.0 0.0 0.00 1.19 1.19 99 1013.2
20260510000056 10 185 1.6 1.6 0.00 1.19 1.19 98 1012.9
20260509235553 11 47 0.0 0.0 0.00 1.19 1.19 97 1012.7
20260509235050 11 43 0.0 0.0 0.00 1.19 1.19 97 1012.6
20260509234546 11 356 1.6 1.6 0.00 1.19 1.19 95 1012.5
20260509234044 11 50 1.6 1.6 0.00 1.19 1.19 96 1012.5
20260509233541 11 49 0.0 0.0 0.00 1.19 1.19 96 1012.5
20260509233039 11 38 0.0 0.0 0.00 1.19 1.19 96 1012.5
20260509232535 11 48 0.0 0.0 0.00 1.19 1.19 94 1012.4
20260509232032 11 222 4.8 4.8 0.00 1.19 1.19 94 1012.7
20260509231528 11 51 0.0 0.0 0.00 1.19 1.19 95 1012.3
20260509231026 12 281 4.8 8.0 0.00 1.19 1.19 93 1012.4
20260509230523 12 190 1.6 3.2 0.00 1.19 1.19 93 1012.4
20260509230020 12 225 4.8 8.0 0.00 1.19 1.19 93 1012.5
20260509225515 12 58 0.0 1.6 0.00 1.19 1.19 95 1012.5
20260509225011 12 199 4.8 9.7 0.00 1.19 1.19 94 1012.5
20260509224507 12 89 3.2 3.2 0.00 1.19 1.19 93 1012.4
20260509224004 12 43 1.6 1.6 0.00 1.19 1.19 93 1012.8
20260509223500 12 81 1.6 1.6 0.00 1.19 1.19 94 1012.8
20260509222958 12 33 0.0 1.6 0.00 1.19 1.19 93 1012.9
20260509222453 12 185 3.2 4.8 0.00 1.19 1.19 94 1013.0
20260509221949 12 209 1.6 3.2 0.00 1.19 1.19 94 1012.7
20260509221446 12 58 0.0 0.0 0.00 1.19 1.19 94 1012.6
20260509220941 12 195 0.0 1.6 0.00 1.19 1.19 95 1012.5
20260509220438 12 43 0.0 0.0 0.00 1.19 1.19 97 1012.3
20260509215934 12 48 1.6 3.2 0.00 1.19 1.19 96 1012.6
20260509215429 12 207 3.2 3.2 0.00 1.19 1.19 97 1012.7
20260509214927 12 37 1.6 1.6 0.00 1.19 1.19 97 1012.7
20260509214424 12 65 0.0 1.6 0.00 1.19 1.19 96 1012.7
20260509213921 12 176 4.8 4.8 0.00 1.19 1.19 95 1012.8
20260509213416 12 78 3.2 4.8 0.00 1.19 1.19 96 1012.8
20260509212914 12 50 1.6 1.6 0.00 1.19 1.19 97 1012.9
20260509212412 12 123 0.0 0.0 0.00 1.19 1.19 97 1012.9
20260509211908 12 72 1.6 3.2 0.00 1.19 1.19 95 1012.8
20260509211403 12 38 0.0 0.0 0.00 1.19 1.19 97 1012.9
20260509210900 12 47 0.0 1.6 0.00 1.19 1.19 99 1012.8
20260509210357 12 60 1.6 3.2 0.00 1.19 1.19 97 1013.1
20260509205852 12 213 4.8 4.8 0.00 1.19 1.19 97 1013.1
20260509205346 11 253 0.0 1.6 0.00 1.19 1.19 97 1013.2
20260509204844 11 205 8.0 11.3 0.00 1.19 1.19 97 1013.3
20260509204340 11 48 0.0 0.0 0.00 1.19 1.19 98 1013.2
20260509203836 12 30 1.6 3.2 0.00 1.19 1.19 98 1013.4
20260509203333 11 359 1.6 3.2 0.00 1.19 1.19 96 1013.6
20260509202829 11 14 1.6 3.2 0.00 1.19 1.19 97 1013.5
20260509202326 12 158 4.8 4.8 0.00 1.19 1.19 97 1013.5
20260509201825 12 52 3.2 3.2 0.00 1.19 1.19 99 1013.7
20260509201322 12 56 1.6 3.2 0.00 1.19 1.19 99 1013.5
20260509200818 11 50 0.0 1.6 0.00 1.19 1.19 99 1013.6
20260509200314 11 41 3.2 3.2 0.00 1.19 1.19 99 1013.6
20260509195811 11 52 0.0 0.0 0.00 1.19 1.19 99 1013.7
20260509195306 11 48 0.0 1.6 0.00 1.19 1.19 99 1013.7
20260509194805 11 73 0.0 0.0 0.00 1.19 1.19 99 1013.9
20260509194301 11 46 0.0 0.0 0.13 1.19 1.19 99 1013.9
20260509193758 11 63 0.0 0.0 0.30 1.19 1.19 99 1014.2
20260509193258 11 6 3.2 3.2 0.36 1.17 1.17 99 1014.2